Theta_e
331 331 333 335 337 338 338 338 338 343 341 339 338 340 342 341 340 340 338 338 338 337 339 339 339 340 340 342 344 342 342 340 338 333 332 334 327 329 332 331 329 330 331 329 328 323 320 316 320 327 329 330 329 329 330 332 330 330 331 331 330 329 327
334 332 333 335 336 339 336 336 338 341 343 340 338 338 342 342 342 340 338 338 339 339 340 339 340 341 341 341 342 341 339 339 337 336 333 332 331 332 325 328 328 328 328 327 328 327 321 318 318 319 322 327 329 329 337 332 331 333 332 330 331 330 328
335 334 333 332 333 336 335 336 337 339 342 341 342 343 343 345 343 340 339 339 339 339 341 340 339 339 341 342 342 340 340 337 337 334 332 333 334 333 329 329 325 325 325 326 326 324 324 324 316 317 320 319 317 327 328 326 331 331 330 331 331 329 329
335 335 333 333 335 336 335 336 337 340 343 343 347 345 341 339 339 340 337 336 336 338 341 341 340 340 340 341 342 340 337 336 335 333 332 333 333 331 333 330 329 327 325 323 325 326 322 320 319 319 320 319 320 318 326 330 329 328 329 331 328 329 328
336 336 335 335 337 337 338 338 340 342 343 344 344 344 345 346 344 339 338 338 339 340 341 343 342 342 342 342 340 336 334 335 335 333 332 330 330 332 331 330 329 329 329 327 326 327 326 323 321 319 318 320 320 320 324 325 325 323 325 326 330 333 333
339 338 338 337 338 338 338 338 339 338 341 342 343 342 342 344 345 343 340 338 336 334 335 340 341 340 339 338 337 335 334 333 332 332 331 328 329 329 330 330 330 329 327 331 332 329 327 326 325 319 320 322 317 318 320 321 321 324 329 327 328 330 329
337 337 337 337 337 338 338 337 338 338 338 339 340 342 343 341 341 342 342 342 340 336 336 337 340 339 335 334 333 331 331 331 332 331 331 330 329 330 331 331 328 329 329 330 329 327 326 324 322 321 320 321 320 316 319 318 324 322 325 326 331 330 326
338 338 338 337 337 337 338 337 338 339 339 341 342 343 343 343 341 341 341 342 341 340 339 338 337 335 331 330 329 329 328 327 329 330 330 330 329 328 329 330 331 328 329 330 330 329 328 325 324 324 321 316 316 318 318 319 319 319 320 322 324 330 330
339 339 339 339 340 340 339 339 339 340 341 342 342 342 342 341 341 341 341 338 338 338 338 335 333 332 329 328 327 326 325 328 328 329 329 329 328 329 329 329 329 328 330 330 330 329 328 328 328 326 323 320 314 311 316 315 317 318 321 321 324 328 327
336 336 337 338 339 340 340 340 340 341 341 341 340 341 340 340 341 341 340 339 337 336 335 334 333 331 327 327 327 326 326 328 329 328 328 327 328 328 328 328 327 327 329 330 329 328 329 328 328 326 325 321 320 314 312 311 313 314 318 318 316 322 323
337 337 337 336 337 337 337 338 339 339 339 338 337 338 340 339 340 340 339 338 336 334 333 332 331 329 326 326 326 325 325 326 327 327 324 324 326 327 328 328 328 327 328 329 328 329 329 328 327 326 325 324 323 317 315 311 311 316 316 321 321 320 325
336 337 336 336 336 334 333 334 334 336 340 340 339 338 339 338 338 338 336 334 334 333 332 331 328 327 326 324 325 324 322 323 324 324 325 325 326 327 327 326 327 326 327 328 328 327 327 328 326 326 324 324 324 322 317 316 311 316 320 317 322 324 322
334 334 335 337 335 334 334 334 334 334 336 338 336 336 336 336 336 337 337 333 332 332 331 329 328 327 326 323 323 323 324 324 320 319 322 326 328 327 326 326 326 325 327 327 327 326 326 327 326 324 323 323 324 324 322 319 315 314 320 319 320 321 321
333 332 333 334 334 335 336 335 335 335 334 338 336 335 335 334 334 334 334 333 332 331 331 329 328 327 323 321 320 320 321 323 323 322 323 327 329 328 327 326 325 326 327 326 326 326 325 325 325 325 324 323 321 322 320 317 313 313 317 322 323 322 323
331 332 331 332 331 331 331 333 334 333 332 332 333 333 333 333 333 333 332 331 331 331 330 329 328 326 324 322 320 320 320 321 322 322 326 325 324 325 324 324 325 325 324 324 325 324 324 324 323 322 321 321 319 320 321 318 315 314 313 318 319 322 321
329 329 329 330 330 329 330 331 332 331 331 331 331 331 331 331 331 332 331 331 330 330 329 329 329 326 323 323 321 321 321 322 324 322 323 323 324 324 324 323 323 323 325 324 324 324 323 322 322 320 319 321 320 320 322 321 317 314 313 314 318 316 317
328 327 326 327 327 329 329 330 330 330 330 332 330 331 331 329 328 329 329 328 330 330 329 328 329 327 324 321 320 318 319 323 324 322 322 322 322 322 322 322 322 323 324 323 323 323 324 323 323 323 322 322 321 321 321 320 319 315 314 313 315 314 316
327 325 325 326 326 327 328 328 329 327 327 326 326 328 330 330 329 327 327 326 326 327 329 329 327 327 327 325 322 321 321 320 322 323 322 322 324 322 322 322 323 322 323 321 321 322 324 323 321 321 320 319 318 319 320 319 319 318 315 313 314 316 318
327 326 325 325 326 326 326 324 324 325 323 322 323 323 323 323 323 322 323 324 325 324 325 326 328 327 325 325 325 324 324 323 323 323 322 321 321 321 321 321 322 324 326 324 323 323 322 320 321 319 318 318 318 318 319 319 318 317 316 314 314 313 315
324 327 327 326 327 325 325 324 322 321 323 321 321 320 320 319 320 320 319 320 321 322 322 322 324 326 325 325 323 322 322 322 323 321 322 321 322 321 322 322 321 321 321 321 319 319 321 321 321 320 319 319 319 317 317 316 316 315 314 313 313 313 313
322 322 324 326 324 326 325 324 323 325 322 320 320 319 318 318 319 318 319 319 319 320 320 320 322 320 320 322 322 321 321 320 320 322 321 321 321 320 321 321 321 321 320 320 321 321 320 319 319 317 317 319 319 319 317 316 316 314 312 312 311 310 311
320 321 320 319 321 321 322 322 322 323 322 319 320 319 318 318 317 317 317 317 317 319 320 320 319 317 315 315 315 316 315 316 317 319 319 320 320 320 320 321 320 321 323 324 325 324 324 325 321 318 319 318 317 317 316 315 315 313 312 311 310 312 310
316 316 316 318 319 319 319 320 320 319 317 317 317 317 317 317 316 316 315 315 316 317 318 319 316 312 312 312 313 312 312 312 311 311 313 315 317 319 319 319 320 322 323 324 324 321 316 314 317 318 316 316 315 316 316 315 314 313 312 310 309 309 308
315 314 315 316 318 316 315 317 317 317 318 318 317 315 315 313 314 315 314 313 314 315 316 317 309 300 301 306 311 310 307 307 307 308 309 311 312 314 316 316 316 318 319 320 320 315 312 310 310 309 311 314 316 314 312 310 310 311 311 310 310 310 309
312 314 314 313 314 315 316 316 315 315 316 316 317 316 315 314 314 314 314 313 313 314 314 315 302 302 301 300 306 312 311 308 307 306 306 306 307 309 312 313 314 316 316 316 317 316 316 313 308 307 305 305 305 306 307 311 310 309 309 308 308 309 309
311 311 312 312 313 314 315 313 313 314 314 318 318 315 313 313 313 314 313 311 311 312 312 310 302 303 302 301 300 308 308 307 306 306 305 305 305 305 306 308 309 311 313 316 316 313 313 313 314 311 310 310 310 308 303 300 301 310 311 310 308 308 309
309 310 311 311 312 312 312 313 317 315 314 314 313 312 313 312 312 311 311 310 310 310 311 312 302 302 301 299 298 301 309 308 307 306 306 306 306 306 306 306 306 307 308 310 310 311 312 313 312 312 313 313 313 314 310 305 304 303 306 309 308 307 309
308 309 310 309 310 310 310 313 314 314 313 313 312 311 310 310 310 310 310 309 309 309 309 301 298 298 298 297 296 298 308 308 307 306 306 306 306 307 306 307 306 306 306 307 307 308 307 308 309 310 310 311 312 313 313 313 313 312 311 310 309 309 310
308 308 309 309 309 308 310 311 310 311 311 311 311 311 310 310 309 308 309 309 308 307 310 299 298 297 296 296 296 306 308 307 306 305 305 305 305 306 306 306 307 307 307 307 310 305 307 309 307 306 305 305 307 309 311 315 308 309 315 312 311 310 310
308 308 308 308 308 309 309 310 310 310 309 309 309 308 309 309 309 308 308 308 308 307 307 303 299 297 296 295 298 306 306 305 304 304 304 304 305 305 305 305 305 305 305 306 301 296 296 305 305 306 305 305 306 306 306 309 306 302 300 302 303 303 303
308 308 308 308 309 309 309 309 311 311 310 309 308 308 308 307 307 307 307 307 307 306 305 305 297 296 297 295 303 305 304 303 303 303 303 304 304 304 304 307 307 306 305 301 294 294 294 304 305 306 306 305 304 304 305 308 309 309 304 301 299 299 299
308 308 307 308 309 309 309 310 311 312 310 308 308 308 307 305 305 306 306 307 309 306 305 305 298 296 296 296 302 305 303 302 301 302 302 302 303 303 303 305 307 303 302 298 292 293 293 301 301 303 304 304 304 304 306 307 307 307 307 308 309 310 307
309 308 307 308 308 309 310 309 308 308 308 306 305 305 305 305 304 304 306 306 306 306 306 305 304 295 296 296 297 303 303 301 300 300 301 301 301 302 303 303 304 294 293 292 292 292 292 293 297 298 299 301 302 303 304 303 306 307 306 307 306 307 308
308 308 308 308 308 308 308 308 307 306 305 306 305 305 304 304 303 303 304 305 305 304 305 304 304 296 297 296 296 298 301 300 300 300 300 300 300 300 301 301 303 298 292 292 292 292 293 293 294 297 298 298 300 298 297 299 303 306 305 306 306 306 306
308 308 308 307 307 306 307 306 306 305 305 304 304 303 303 303 302 302 303 303 303 304 305 306 304 299 297 295 295 295 299 299 299 298 299 299 299 299 300 301 301 300 293 292 292 292 292 292 292 296 297 294 293 293 296 298 298 300 302 303 304 304 304
307 307 307 307 305 305 305 305 305 305 304 303 302 302 302 302 301 301 301 301 302 302 302 302 300 301 296 293 294 294 293 296 293 298 296 295 296 297 299 300 301 299 293 292 292 292 292 292 294 295 293 293 293 292 296 297 297 298 299 300 302 302 302
305 306 305 305 305 304 304 304 303 303 302 302 301 300 300 300 300 299 298 298 299 299 300 300 300 297 296 294 293 293 293 292 293 295 296 296 296 297 297 298 297 293 293 292 292 292 292 293 294 293 292 292 292 294 296 296 296 297 298 298 299 300 301
Wind_Speed
7 8 9 10 4 1 4 6 0 4 6 9 7 8 7 6 4 5 7 8 7 8 8 7 7 6 6 6 5 5 5 5 3 4 5 3 5 4 4 4 3 1 2 3 2 2 2 2 3 2 3 2 2 1 2 0 0 2 1 3 2 3 4
8 9 6 1 4 7 7 6 4 4 6 7 5 5 6 5 5 6 6 6 7 8 7 6 6 7 8 8 7 6 6 5 4 3 3 5 3 3 5 2 3 3 4 5 4 4 3 3 3 3 2 1 1 3 0 1 2 3 3 3 2 3 5
4 3 2 4 5 3 4 5 2 2 5 5 5 3 4 2 3 5 5 6 6 6 6 8 8 8 7 8 7 6 5 5 4 4 3 4 4 2 5 4 4 3 3 3 4 4 5 5 4 2 2 3 3 1 3 5 3 2 3 3 2 4 5
6 5 5 4 5 4 4 4 4 4 4 5 2 4 6 5 7 2 1 5 7 7 8 9 9 8 7 7 6 6 7 7 6 5 4 3 3 3 3 3 5 5 5 5 4 4 1 1 1 2 2 3 3 4 2 0 1 4 3 3 4 4 1
4 4 3 5 5 5 5 4 2 3 3 3 1 2 3 2 5 7 8 8 6 6 9 8 6 6 7 7 6 6 5 5 4 4 4 3 3 3 3 3 3 3 3 2 1 2 2 1 1 2 3 2 3 2 3 4 4 6 5 5 3 3 3
4 4 4 4 4 4 4 4 3 4 4 3 3 4 6 6 4 6 7 8 7 9 9 7 6 5 3 2 3 5 5 6 6 5 5 5 4 4 4 3 3 3 4 2 2 1 1 2 2 2 3 1 2 3 3 4 3 3 5 4 3 3 3
3 3 4 4 4 4 4 5 4 4 4 5 5 5 4 5 4 5 6 7 7 8 9 9 8 6 2 4 5 6 6 5 4 4 4 4 4 4 3 4 4 5 4 4 4 4 4 3 3 3 2 1 2 3 3 3 2 3 1 2 2 6 4
2 2 1 2 3 4 4 4 4 4 5 5 4 4 5 3 5 6 6 6 6 7 7 7 5 1 2 5 6 7 5 5 4 4 4 5 6 5 5 5 5 6 6 5 4 4 4 4 3 2 0 2 2 3 3 2 3 4 4 4 4 3 3
4 3 3 2 2 3 5 6 6 5 5 5 5 5 3 3 4 4 3 5 4 5 6 7 7 7 6 6 4 3 4 3 3 5 5 5 5 4 4 6 5 5 5 5 4 5 5 4 3 2 3 4 3 3 2 3 2 3 3 3 1 1 3
4 5 6 7 6 5 4 5 5 6 6 6 6 6 6 5 4 2 2 3 3 3 5 6 8 8 8 7 6 5 5 5 5 5 3 5 6 7 7 8 7 6 5 4 4 5 5 4 3 3 3 3 2 3 3 2 3 3 2 4 3 2 5
4 5 5 7 7 7 6 6 6 6 6 5 4 5 5 5 3 1 1 2 3 5 5 6 7 8 9 8 8 6 4 3 3 3 6 8 8 7 7 7 6 6 5 5 5 4 4 3 3 3 4 4 4 4 3 3 4 2 3 2 3 3 2
5 4 4 5 5 6 7 8 8 8 5 4 4 4 3 4 3 2 2 3 3 3 4 4 6 7 8 8 7 6 5 5 5 7 7 9 9 9 8 8 7 6 6 6 5 5 4 5 5 5 5 4 4 3 4 3 4 3 3 3 2 3 3
5 4 4 2 3 4 4 5 6 7 7 3 5 6 5 5 4 2 2 4 4 4 4 5 5 5 6 7 7 6 6 7 10 12 12 10 7 6 6 7 8 7 6 6 5 5 5 5 5 5 5 6 5 5 4 4 4 5 3 4 4 4 6
4 5 5 5 4 3 3 3 3 3 5 2 2 4 4 5 6 5 5 4 4 5 5 6 6 5 6 7 6 7 8 9 11 11 10 8 5 3 3 6 8 7 6 6 5 6 6 5 5 5 4 3 4 3 4 3 5 5 3 4 4 3 3
3 4 5 5 5 5 6 5 4 4 4 5 4 4 5 5 5 6 6 7 6 6 6 7 7 8 8 8 9 8 9 11 11 10 6 3 6 6 9 11 9 5 9 9 7 6 5 6 5 5 5 5 5 6 5 5 5 5 5 3 4 3 3
3 4 5 4 5 5 6 6 6 5 4 4 5 5 6 6 6 6 7 6 7 7 6 7 7 8 9 9 8 8 9 10 9 8 8 8 9 10 10 10 12 11 9 8 7 7 6 6 5 6 5 5 4 3 2 2 2 3 4 4 3 3 3
3 4 5 4 5 6 6 5 5 6 6 4 4 4 4 6 7 7 7 6 6 6 7 7 7 8 9 9 9 11 10 8 8 8 9 9 9 10 12 11 12 9 7 7 6 5 4 3 3 2 3 2 3 3 3 3 4 4 3 5 3 5 4
3 4 4 4 5 5 5 6 6 7 7 7 8 7 4 4 5 6 6 7 7 6 7 6 7 7 7 7 9 9 9 9 8 8 9 10 13 12 11 8 6 7 9 11 8 6 3 3 3 3 4 4 5 5 5 5 6 6 6 7 5 4 5
2 2 3 3 4 4 5 6 6 6 8 8 8 8 9 9 9 9 10 10 8 8 7 6 6 7 8 9 8 8 6 6 8 11 11 11 12 10 10 10 6 3 1 1 1 2 3 5 4 6 6 5 5 4 3 3 4 4 4 5 4 4 3
4 1 2 2 2 3 2 3 5 5 5 6 6 5 6 8 7 8 9 10 11 10 8 8 6 5 6 7 8 7 6 8 9 7 10 8 7 7 6 6 4 3 4 2 4 5 4 4 3 5 6 7 4 5 4 6 4 4 5 5 5 5 4
4 4 3 2 2 2 1 2 3 2 3 5 6 6 6 7 7 8 8 8 9 8 9 10 9 8 8 8 8 6 7 7 8 6 7 9 9 6 5 8 7 3 5 4 3 3 4 5 5 7 5 3 3 5 4 6 6 7 7 6 6 6 6
5 4 4 4 4 4 3 3 3 2 2 4 5 6 6 7 8 8 9 10 10 8 7 6 5 6 6 7 7 7 8 10 10 9 8 8 6 8 7 9 8 7 3 4 5 7 8 4 2 3 3 5 8 8 8 8 7 6 6 6 7 5 5
6 6 6 5 4 4 5 4 4 4 4 5 6 7 7 7 8 7 8 8 9 9 7 6 7 10 8 5 6 6 7 8 9 9 10 10 8 7 6 6 8 14 13 12 11 9 7 5 6 5 4 3 4 4 4 4 5 6 5 6 5 5 6
6 7 6 5 4 6 6 4 5 5 4 4 4 5 4 6 6 6 8 7 7 5 5 4 8 7 8 8 5 6 6 7 8 10 11 10 10 9 8 7 7 9 11 10 10 13 15 13 12 11 11 9 8 7 8 8 8 6 5 6 5 5 6
8 7 7 7 6 4 4 4 4 4 3 3 3 3 5 4 4 4 4 5 5 5 5 9 9 5 6 8 5 3 2 3 5 6 7 10 11 11 11 9 7 7 8 9 9 8 9 11 13 11 9 10 10 11 10 10 10 10 9 9 8 8 8
10 9 8 8 7 6 3 5 6 5 4 2 2 3 4 4 4 3 4 6 6 5 5 4 5 2 3 4 7 6 6 6 6 6 6 8 8 10 11 10 10 8 8 15 12 10 9 11 10 10 13 15 14 15 16 15 13 12 10 9 10 10 9
10 10 9 9 9 8 4 4 2 3 4 4 4 5 4 5 5 5 5 5 6 6 6 6 4 3 1 1 1 1 2 4 5 7 8 8 8 9 8 9 10 10 9 10 9 10 9 9 10 11 10 10 9 12 14 14 15 17 13 10 11 12 12
12 12 13 12 9 9 9 5 3 3 3 3 4 4 5 7 6 6 6 7 7 6 6 8 2 2 4 5 7 5 4 4 5 5 6 8 9 9 9 9 9 10 10 11 11 14 14 11 9 8 9 8 8 7 7 8 9 9 10 10 12 14 15
11 12 12 12 13 13 7 5 7 6 5 4 5 5 5 5 7 7 6 6 6 7 3 6 1 4 8 8 8 4 4 5 5 6 7 7 8 8 9 9 8 8 8 9 12 15 13 11 10 11 11 11 10 8 7 6 7 8 11 12 12 13 13
13 13 12 12 12 10 10 11 10 11 10 10 7 5 5 5 5 5 6 6 5 5 6 9 8 3 5 6 3 4 4 6 7 8 9 8 9 9 9 10 10 11 12 10 14 15 14 10 6 9 10 10 9 8 9 8 12 14 12 14 16 17 17
12 12 11 10 10 9 8 6 4 3 3 3 4 5 5 6 6 6 6 6 6 6 7 10 8 9 4 1 3 3 4 5 7 7 8 8 7 8 10 17 17 8 7 6 10 14 15 12 7 6 7 8 8 9 8 7 7 7 12 13 15 16 16
9 9 9 8 7 6 4 5 3 3 3 4 5 5 7 6 6 6 7 7 9 9 7 6 7 5 6 3 1 3 5 6 7 7 7 9 7 7 8 8 12 5 4 6 8 8 10 9 6 7 8 8 8 9 8 8 8 9 7 6 6 5 6
7 8 9 8 7 6 5 5 5 5 6 6 6 7 7 7 8 7 6 7 8 7 4 6 8 12 11 8 3 4 5 6 8 9 8 9 9 8 8 8 5 4 6 6 6 7 6 7 4 5 7 6 7 7 7 7 8 7 9 8 8 8 9
8 7 7 6 6 7 5 6 6 6 6 5 5 5 6 6 7 7 7 6 6 8 8 8 8 12 12 11 10 6 5 8 8 8 7 8 7 8 8 7 8 1 4 5 6 6 7 9 7 5 4 6 6 6 7 7 9 13 9 8 8 8 8
5 5 6 6 6 6 6 6 5 5 4 5 6 6 6 6 6 6 6 7 7 7 8 11 9 11 13 14 14 14 7 7 9 8 9 9 9 8 7 8 7 5 3 7 9 7 8 7 8 6 6 9 11 11 7 7 8 8 9 9 8 9 9
7 5 6 7 7 7 6 5 5 5 4 5 7 7 6 5 6 6 6 5 6 7 8 9 11 10 14 12 12 11 10 7 10 7 7 8 8 9 8 9 8 11 14 15 14 12 10 10 8 7 11 12 12 13 11 7 7 7 9 10 9 9 9
7 6 7 6 6 6 5 7 7 6 6 6 4 6 6 6 7 7 8 7 7 7 7 6 9 11 10 12 10 11 12 13 12 8 6 7 8 9 9 8 10 17 17 14 13 13 13 11 9 13 13 14 14 14 9 8 9 8 8 10 11 11 10
Wind_Direction
150 196 216 227 226 240 251 267 307 152 205 230 201 195 197 193 167 127 135 173 184 216 230 224 221 216 224 239 233 207 191 188 203 238 266 215 174 182 187 166 180 200 207 210 230 212 247 281 287 289 291 332 11 328 257 182 298 271 273 274 263 286 283
190 213 236 296 210 206 222 228 196 203 226 246 236 195 195 177 172 160 170 176 197 212 224 231 228 222 222 226 221 208 196 191 193 206 254 281 223 193 153 171 189 187 200 200 200 202 213 238 266 270 290 292 315 290 160 232 245 222 215 246 240 252 264
256 304 44 267 288 294 270 291 323 268 235 243 263 236 179 172 191 168 176 192 222 231 222 226 222 221 227 234 227 209 191 194 183 181 199 276 274 257 169 165 177 194 235 213 202 204 220 214 237 274 285 328 304 277 310 277 222 219 244 223 217 267 266
271 311 324 318 297 314 318 327 320 290 286 289 319 16 13 303 287 356 13 287 255 236 238 228 222 215 220 233 231 209 198 191 178 174 186 233 273 258 240 197 192 192 192 203 202 193 175 216 277 280 321 290 285 306 260 305 291 263 228 225 212 230 22
247 270 301 306 302 297 301 297 270 270 280 265 288 258 229 218 188 188 207 226 239 250 246 244 246 226 216 217 212 207 206 195 174 175 176 191 246 254 249 231 233 241 242 187 208 192 162 203 182 257 263 273 291 275 312 301 264 259 243 246 213 174 150
346 340 314 307 315 316 318 316 314 302 292 260 209 218 223 226 219 187 195 202 213 244 264 278 258 263 293 300 212 192 194 190 185 179 180 187 206 234 233 224 244 246 250 231 183 154 179 187 206 251 243 280 280 285 273 278 274 260 189 211 234 166 130
330 348 346 331 327 308 299 300 297 281 266 267 265 233 242 254 245 243 212 207 198 215 240 254 255 244 242 225 204 178 192 195 182 188 195 188 199 226 229 217 220 232 232 224 203 181 190 193 217 227 271 262 263 277 280 273 280 337 297 280 193 139 165
332 335 247 240 288 304 302 294 284 279 274 267 272 286 272 259 244 237 235 221 218 208 212 224 240 285 208 217 208 199 194 201 192 179 193 199 204 205 225 232 217 219 230 231 207 191 181 202 209 218 268 301 279 263 274 302 321 266 258 244 236 176 164
344 317 315 306 308 312 308 305 305 302 299 313 311 304 295 277 273 265 208 196 202 198 199 198 207 218 221 235 241 224 223 246 246 219 199 200 218 217 222 232 237 234 223 215 201 194 202 210 194 191 191 218 252 286 312 294 273 281 313 310 305 208 152
2 359 348 341 335 329 318 312 314 315 318 321 321 324 317 308 291 254 179 189 208 204 201 201 200 198 194 209 218 205 216 229 232 239 259 249 220 212 207 221 226 234 241 226 207 201 202 196 193 196 208 225 232 256 284 285 283 293 308 350 327 333 342
351 354 359 351 350 340 343 345 335 331 333 319 316 314 313 299 283 307 225 193 204 237 227 212 206 204 200 207 207 207 211 215 228 229 227 246 248 237 217 206 210 218 225 231 211 207 199 196 193 197 211 217 204 217 226 260 272 278 285 275 258 274 300
15 5 4 358 351 343 341 341 336 333 324 333 315 311 306 296 299 226 219 226 212 225 225 228 214 209 206 211 209 215 218 211 228 247 229 228 230 225 222 218 211 214 215 219 211 205 207 197 197 201 215 218 227 214 226 230 267 241 231 263 279 324 319
11 4 356 354 331 324 317 315 323 326 331 354 333 329 319 307 301 284 201 203 224 223 223 228 227 224 210 212 211 214 222 203 207 224 230 227 225 220 227 223 213 213 212 223 211 204 203 200 195 201 207 208 212 211 206 218 229 263 265 274 269 268 271
2 5 348 340 329 323 314 315 312 312 314 324 270 293 297 290 292 298 291 270 243 226 216 226 227 226 211 217 222 227 235 231 218 221 231 231 206 213 289 269 242 215 215 229 216 205 207 205 203 206 212 221 231 228 221 225 239 258 261 248 256 264 271
348 9 342 341 333 341 335 326 321 315 321 322 315 308 299 300 305 304 307 303 281 245 223 223 222 219 221 216 219 222 232 237 231 229 233 199 221 204 213 230 232 222 230 219 215 208 201 202 202 198 198 206 215 223 207 220 234 242 256 246 266 271 272
338 20 328 347 328 337 331 330 328 324 320 320 321 315 315 308 302 292 278 262 274 279 258 236 230 223 220 230 232 230 230 235 233 230 229 233 227 220 210 212 223 211 225 223 217 208 202 209 205 210 212 197 207 208 210 221 259 267 270 269 261 277 264
344 14 340 339 329 335 332 327 325 322 323 315 291 279 289 304 305 304 303 295 268 261 268 262 247 241 231 217 226 238 239 237 240 234 232 241 248 237 232 219 217 216 221 232 226 221 208 207 217 242 258 257 243 231 230 243 238 246 254 267 245 249 248
356 8 339 338 341 334 336 337 337 340 334 331 339 332 315 291 290 294 297 298 296 267 251 267 286 302 310 281 243 237 243 242 233 227 231 236 243 243 238 231 232 226 211 223 219 219 219 228 227 226 224 229 227 218 217 208 217 216 230 239 248 234 243
339 11 335 339 333 333 354 347 342 342 350 341 345 346 344 354 351 342 325 309 300 311 316 299 255 237 247 271 301 293 292 273 253 238 227 232 247 257 253 240 236 250 248 268 245 213 213 236 235 250 257 255 259 266 283 236 218 237 248 257 256 274 256
315 307 296 279 295 327 350 338 330 336 336 337 330 335 342 337 340 337 339 342 338 333 333 340 344 358 330 306 288 304 297 298 286 299 295 277 266 264 310 324 263 233 247 228 264 270 255 249 251 247 236 243 252 271 242 255 262 260 254 255 253 247 263
319 307 270 301 305 270 269 296 298 304 335 322 320 334 345 345 347 340 340 336 338 338 352 354 36 23 22 10 5 353 346 347 342 332 315 317 335 2 328 301 301 315 281 265 246 253 247 237 228 246 246 266 260 247 263 266 245 240 245 248 242 243 230
306 310 332 313 293 300 290 248 243 298 314 304 314 335 344 340 334 335 335 336 334 340 355 8 50 26 22 16 9 1 354 349 340 327 323 314 316 313 304 283 287 289 272 260 264 281 275 271 297 294 283 248 235 227 222 223 232 235 239 250 260 250 248
323 328 307 309 325 321 319 356 16 354 341 347 13 15 5 349 336 337 339 343 339 338 344 346 52 50 44 32 9 2 355 346 335 329 326 325 318 306 295 297 302 304 306 304 291 275 277 273 250 237 240 270 285 282 277 266 243 233 240 251 254 261 256
317 305 315 317 320 325 336 337 335 339 345 3 8 5 345 321 329 336 333 329 327 331 328 343 23 36 50 51 28 11 3 348 344 337 330 323 312 299 297 294 283 290 293 279 272 268 266 266 264 255 247 239 238 250 271 274 278 277 269 261 262 259 258
312 315 310 310 313 322 318 325 331 332 345 352 357 329 304 325 332 327 316 315 313 318 327 323 338 17 27 19 23 2 343 342 337 330 327 325 322 318 311 309 299 290 283 281 281 281 273 259 255 262 261 255 256 260 250 243 257 262 257 260 263 261 268
320 315 314 316 315 297 315 339 331 331 317 316 298 292 320 316 302 299 305 306 311 310 300 349 15 10 347 1 354 0 337 338 329 318 310 301 304 309 313 315 321 308 302 298 297 293 287 286 276 260 266 269 265 259 260 251 240 249 271 274 270 262 256
314 317 323 326 325 326 336 320 340 353 346 355 347 333 318 309 310 314 321 317 312 318 325 347 306 236 251 307 358 295 304 308 305 308 306 303 291 289 297 300 299 304 303 310 312 314 306 295 287 278 264 252 246 251 253 256 261 261 253 245 250 253 249
331 332 333 328 320 324 326 319 332 22 350 333 321 318 323 320 318 322 323 318 315 330 337 31 317 286 261 239 238 214 259 266 277 279 289 294 296 289 274 266 263 267 278 273 271 272 278 282 288 293 289 271 253 243 242 248 246 242 243 239 240 246 250
327 326 327 329 327 318 323 349 340 336 325 322 325 326 318 320 324 316 314 314 316 313 325 35 139 241 244 244 253 271 276 277 271 284 293 299 296 301 304 301 291 287 281 278 273 268 264 266 266 269 272 275 279 279 272 255 256 253 246 239 236 240 244
328 323 322 319 315 323 347 357 1 0 352 347 337 329 321 307 303 306 311 313 318 333 331 334 327 321 287 287 309 274 295 297 301 307 307 308 308 303 303 304 312 313 309 327 18 9 0 331 294 277 271 270 266 266 270 271 263 256 243 244 250 246 245
327 332 342 345 355 360 6 357 5 345 318 315 321 325 324 330 331 336 334 332 338 329 327 314 6 70 81 242 223 299 297 298 295 298 302 300 302 305 299 308 310 348 13 35 19 25 6 349 327 316 298 289 283 275 271 270 269 264 265 250 239 240 244
348 347 336 341 346 344 340 331 318 313 318 320 315 313 326 328 329 327 325 319 319 312 297 305 84 48 65 15 254 296 305 315 305 299 298 293 292 297 305 313 319 64 14 30 44 36 28 12 345 343 333 320 307 295 294 320 320 314 313 313 306 296 275
342 340 331 336 338 331 324 329 352 348 332 331 334 335 335 333 327 314 308 300 288 287 317 9 12 26 27 20 272 296 321 321 315 314 313 313 313 308 303 300 301 67 31 38 31 14 11 36 4 349 334 314 299 300 349 330 308 308 305 298 291 291 294
336 328 332 332 329 324 334 330 338 340 334 341 341 337 331 323 313 305 303 317 343 1 6 358 2 19 9 356 352 343 327 323 321 315 308 302 296 300 298 301 300 159 109 57 359 348 337 334 339 320 306 295 303 319 323 312 304 296 286 284 284 286 284
326 327 335 340 332 332 338 338 345 331 329 328 331 330 319 315 322 333 355 359 353 351 356 357 358 359 2 15 18 17 5 357 351 338 324 313 312 309 309 306 302 290 52 335 311 295 286 272 281 291 283 285 288 301 306 299 300 294 283 275 271 269 268
334 345 341 339 336 336 338 336 333 326 331 346 346 345 338 337 339 342 349 356 352 352 352 343 353 351 42 49 46 35 21 4 345 336 331 320 310 300 295 292 298 333 329 318 314 307 296 281 270 264 265 268 269 271 274 273 276 286 285 281 274 265 258
334 339 339 334 329 330 339 357 349 349 6 7 6 343 345 352 356 355 353 349 351 341 336 343 345 44 40 25 22 16 5 351 338 320 310 301 302 303 303 314 318 313 308 304 299 295 289 280 266 269 265 263 265 269 267 262 255 251 258 269 271 266 263